Location: Ailingen
(47.6833°N, 9.5000°E)
Time: 08:08:11
(UTC+00:00)

Cosmos 1932 - Pass Details

Date: 18 November 2025
Orbit: 921 x 1008 km, 65.0° (Epoch: 13 December)

Event Time Altitude Azimuth Distance (km) Brightness Sun altitude
Rises 18:06:03 0° 210° (SSW) 3,629 7.9 -24.0°
Reaches altitude 10° 18:08:35 10° 209° (SSW) 2,700 7.2 -24.4°
Maximum altitude 18:14:54 77° 124° (SE) 1,010 4.4 -25.5°
Enters shadow 18:16:22 55° 54° (NE) 1,170 4.6 -25.7°
